This is the latest recevied weather packets stored in our database for station/object K7TUS-6. If no packets are shown the sender has not sent any weather packets the latest 10 day(s).
| Time | Temp. | Humidity | Pressure | Rain* | Wind** | Luminosity | Snow |
|---|---|---|---|---|---|---|---|
| 1778186403 | 20.56° C | 1% | 985 hPa | - | - | - | - |
| 1778186109 | 21.67° C | 1% | 985.1 hPa | - | - | - | - |
| 1778185808 | 20.56° C | 1% | 984.8 hPa | - | - | - | - |
| 1778185508 | 19.44° C | 1% | 985.7 hPa | - | - | - | - |
| 1778185207 | 22.78° C | 1% | 985.9 hPa | - | - | - | - |
| 1778184906 | 21.67° C | 1% | 985.8 hPa | - | - | - | - |
| 1778184606 | 21.11° C | 1% | 984.3 hPa | - | - | - | - |
| 1778184305 | 20.56° C | 1% | 984.9 hPa | - | - | - | - |
| 1778184004 | 20.56° C | 1% | 985.3 hPa | - | - | - | - |
| 1778183704 | 21.67° C | 1% | 985.1 hPa | - | - | - | - |
| 1778183403 | 21.11° C | 1% | 984.7 hPa | - | - | - | - |
| 1778183103 | 20.56° C | 1% | 986.1 hPa | - | - | - | - |
| 1778182808 | 20° C | 1% | 985.1 hPa | - | - | - | - |
| 1778182508 | 20° C | 1% | 984.6 hPa | - | - | - | - |
| 1778182207 | 20° C | 1% | 984.9 hPa | - | - | - | - |
| 1778181906 | 20.56° C | 1% | 985.4 hPa | - | - | - | - |
| 1778181606 | 20.56° C | 1% | 984.5 hPa | - | - | - | - |
| 1778181305 | 19.44° C | 1% | 985.2 hPa | - | - | - | - |
| 1778181005 | 20° C | 1% | 985.3 hPa | - | - | - | - |
| 1778180704 | 20° C | 1% | 985.2 hPa | - | - | - | - |
| 1778180403 | 20° C | 1% | 985.2 hPa | - | - | - | - |
| 1778180103 | 20° C | 1% | 984.3 hPa | - | - | - | - |
| 1778179808 | 20° C | 1% | 984.3 hPa | - | - | - | - |
| 1778179508 | 19.44° C | 1% | 984.8 hPa | - | - | - | - |
| 1778179207 | 19.44° C | 1% | 985.4 hPa | - | - | - | - |
* Rain since midnight (hover to see other rain measurements)
** Current wind speed in m/s (hover to see current wind gust speed)